NSS-11

Last updated on Tue Oct 21 2025 00:02:50 GMT+0000 (Coordinated Universal Time)

1 26554U 00059A 25293.58659823 .00000030 00000+0 00000+0 0 9994 2 26554 1.5031 84.2294 0002957 129.9424 202.3107 1.00272576 38889
UTC large
Height (km)
Speed (km/s)
/
Latitude / Longitude
Inclination (degrees)
Orbital Period (minutes)
Azimuth
Elevation
Range (km)
Doppler Factor

Next 0 passes for location: London (51.5072 / 0.1276)

Sorry there are no passes over London.